Time,TemperatureF,DewpointF,PressureIn,WindDirection,WindDirectionDegrees,WindSpeedMPH,WindSpeedGustMPH,Humidity,HourlyPrecipIn,Conditions,Clouds,dailyrainin,SoftwareType,DateUTC
2013-12-02 00:14:00,41.7,33.0,30.00,ENE,68,1.0,2.0,70,0.00,,,0.00,weatherlink.com 1.10,2013-12-02 05:14:00,
2013-12-02 00:32:00,41.8,32.0,29.99,NE,41,1.0,3.0,69,0.00,,,0.00,weatherlink.com 1.10,2013-12-02 05:32:00,
2013-12-02 00:50:00,41.6,32.0,29.99,ENE,75,0.0,3.0,70,0.00,,,0.00,weatherlink.com 1.10,2013-12-02 05:50:00,
2013-12-02 01:10:00,41.0,32.0,29.98,NE,34,0.0,1.0,70,0.00,,,0.00,weatherlink.com 1.10,2013-12-02 06:10:00,
2013-12-02 01:28:00,40.4,32.0,29.98,NE,43,0.0,1.0,71,0.00,,,0.00,weatherlink.com 1.10,2013-12-02 06:28:00,
2013-12-02 01:46:00,39.9,32.0,29.98,NE,43,0.0,0.0,72,0.00,,,0.00,weatherlink.com 1.10,2013-12-02 06:46:00,
2013-12-02 02:06:00,39.5,32.0,29.98,NE,43,0.0,0.0,73,0.00,,,0.00,weatherlink.com 1.10,2013-12-02 07:06:00,
2013-12-02 02:24:00,39.3,32.0,29.98,NE,43,0.0,1.0,74,0.00,,,0.00,weatherlink.com 1.10,2013-12-02 07:24:00,
2013-12-02 02:42:00,39.2,32.0,29.97,NE,43,0.0,0.0,74,0.00,,,0.00,weatherlink.com 1.10,2013-12-02 07:42:00,
2013-12-02 03:02:00,39.6,32.0,29.97,NE,43,0.0,1.0,73,0.00,,,0.00,weatherlink.com 1.10,2013-12-02 08:02:00,
2013-12-02 03:20:00,39.6,32.0,29.96,NE,43,0.0,0.0,73,0.00,,,0.00,weatherlink.com 1.10,2013-12-02 08:20:00,
2013-12-02 03:38:00,39.5,31.0,29.95,NE,43,0.0,0.0,72,0.00,,,0.00,weatherlink.com 1.10,2013-12-02 08:38:00,
2013-12-02 03:56:00,39.1,31.0,29.95,NE,43,0.0,0.0,73,0.00,,,0.00,weatherlink.com 1.10,2013-12-02 08:56:00,
2013-12-02 04:16:00,38.6,31.0,29.94,NE,43,0.0,0.0,75,0.00,,,0.00,weatherlink.com 1.10,2013-12-02 09:16:00,
2013-12-02 04:34:00,37.9,31.0,29.94,NE,43,0.0,0.0,75,0.00,,,0.00,weatherlink.com 1.10,2013-12-02 09:34:00,
2013-12-02 04:52:00,37.2,31.0,29.94,NE,43,0.0,0.0,78,0.00,,,0.00,weatherlink.com 1.10,2013-12-02 09:52:00,
2013-12-02 05:12:00,36.7,31.0,29.93,NE,43,0.0,0.0,79,0.00,,,0.00,weatherlink.com 1.10,2013-12-02 10:12:00,
2013-12-02 05:30:00,36.0,31.0,29.93,NE,43,0.0,0.0,81,0.00,,,0.00,weatherlink.com 1.10,2013-12-02 10:30:00,
2013-12-02 05:48:00,36.2,31.0,29.93,NE,43,0.0,0.0,81,0.00,,,0.00,weatherlink.com 1.10,2013-12-02 10:48:00,
2013-12-02 06:08:00,36.7,31.0,29.93,NE,43,0.0,0.0,79,0.00,,,0.00,weatherlink.com 1.10,2013-12-02 11:08:00,
2013-12-02 06:26:00,36.6,31.0,29.93,NE,43,0.0,0.0,80,0.00,,,0.00,weatherlink.com 1.10,2013-12-02 11:26:00,
2013-12-02 06:45:00,36.8,31.0,29.93,NE,43,0.0,0.0,80,0.00,,,0.00,weatherlink.com 1.10,2013-12-02 11:45:00,
2013-12-02 07:03:00,36.1,31.0,29.94,ESE,110,1.0,2.0,82,0.00,,,0.00,weatherlink.com 1.10,2013-12-02 12:03:00,
2013-12-02 07:21:00,35.5,31.0,29.94,ESE,110,0.0,0.0,84,0.00,,,0.00,weatherlink.com 1.10,2013-12-02 12:21:00,
2013-12-02 07:41:00,35.5,31.0,29.94,ESE,110,0.0,0.0,84,0.00,,,0.00,weatherlink.com 1.10,2013-12-02 12:41:00,
2013-12-02 07:59:00,35.8,31.0,29.93,ESE,110,0.0,0.0,84,0.00,,,0.00,weatherlink.com 1.10,2013-12-02 12:59:00,
2013-12-02 08:17:00,36.5,32.0,29.93,ESE,109,0.0,0.0,83,0.00,,,0.00,weatherlink.com 1.10,2013-12-02 13:17:00,
2013-12-02 08:35:00,36.8,32.0,29.93,ESE,109,0.0,0.0,84,0.00,,,0.00,weatherlink.com 1.10,2013-12-02 13:35:00,
2013-12-02 08:55:00,37.0,33.0,29.93,ESE,108,0.0,0.0,84,0.00,,,0.00,weatherlink.com 1.10,2013-12-02 13:55:00,
2013-12-02 09:13:00,38.6,35.0,29.93,ESE,108,0.0,1.0,86,0.00,,,0.00,weatherlink.com 1.10,2013-12-02 14:13:00,
2013-12-02 09:31:00,40.8,35.0,29.93,ESE,103,0.0,0.0,81,0.00,,,0.00,weatherlink.com 1.10,2013-12-02 14:31:00,
2013-12-02 09:51:00,42.8,35.0,29.93,NE,40,1.0,2.0,75,0.00,,,0.00,weatherlink.com 1.10,2013-12-02 14:51:00,
2013-12-02 10:09:00,43.9,35.0,29.93,East,79,0.0,1.0,72,0.00,,,0.00,weatherlink.com 1.10,2013-12-02 15:09:00,
2013-12-02 10:27:00,44.4,36.0,29.93,East,84,0.0,1.0,73,0.00,,,0.00,weatherlink.com 1.10,2013-12-02 15:27:00,
2013-12-02 10:47:00,44.7,37.0,29.93,ESE,120,1.0,2.0,73,0.00,,,0.00,weatherlink.com 1.10,2013-12-02 15:47:00,
2013-12-02 11:05:00,44.9,37.0,29.91,SE,129,3.0,3.0,73,0.00,,,0.00,weatherlink.com 1.10,2013-12-02 16:05:00,
2013-12-02 11:23:00,47.1,37.0,29.90,ENE,68,2.0,4.0,68,0.00,,,0.00,weatherlink.com 1.10,2013-12-02 16:23:00,
2013-12-02 11:42:00,48.5,37.0,29.89,ENE,57,4.0,5.0,65,0.00,,,0.00,weatherlink.com 1.10,2013-12-02 16:42:00,
2013-12-02 12:00:00,49.5,38.0,29.88,East,85,3.0,4.0,64,0.00,,,0.00,weatherlink.com 1.10,2013-12-02 17:00:00,
2013-12-02 12:18:00,50.1,38.0,29.87,ESE,103,1.0,5.0,64,0.00,,,0.00,weatherlink.com 1.10,2013-12-02 17:18:00,
2013-12-02 12:38:00,51.3,38.0,29.86,East,82,2.0,7.0,61,0.00,,,0.00,weatherlink.com 1.10,2013-12-02 17:38:00,
2013-12-02 12:56:00,51.6,38.0,29.86,ENE,70,2.0,10.0,60,0.00,,,0.00,weatherlink.com 1.10,2013-12-02 17:56:00,
2013-12-02 13:14:00,50.4,38.0,29.85,ESE,107,1.0,7.0,62,0.00,,,0.00,weatherlink.com 1.10,2013-12-02 18:14:00,
2013-12-02 13:34:00,50.9,38.0,29.85,NE,54,6.0,7.0,62,0.00,,,0.00,weatherlink.com 1.10,2013-12-02 18:34:00,
2013-12-02 13:52:00,51.1,38.0,29.84,NNE,16,3.0,9.0,61,0.00,,,0.00,weatherlink.com 1.10,2013-12-02 18:52:00,
2013-12-02 14:10:00,51.6,38.0,29.84,ESE,107,2.0,9.0,60,0.00,,,0.00,weatherlink.com 1.10,2013-12-02 19:10:00,
2013-12-02 14:30:00,51.8,38.0,29.84,ENE,60,3.0,6.0,59,0.00,,,0.00,weatherlink.com 1.10,2013-12-02 19:30:00,
2013-12-02 14:48:00,51.1,37.0,29.84,East,87,0.0,7.0,60,0.00,,,0.00,weatherlink.com 1.10,2013-12-02 19:48:00,
2013-12-02 15:06:00,50.3,38.0,29.84,East,85,2.0,7.0,62,0.00,,,0.00,weatherlink.com 1.10,2013-12-02 20:06:00,
2013-12-02 15:24:00,49.8,38.0,29.85,ENE,61,1.0,2.0,63,0.00,,,0.00,weatherlink.com 1.10,2013-12-02 20:24:00,
2013-12-02 15:44:00,49.4,38.0,29.85,SE,129,1.0,4.0,64,0.00,,,0.00,weatherlink.com 1.10,2013-12-02 20:44:00,
2013-12-02 16:02:00,49.0,38.0,29.85,SE,132,3.0,4.0,65,0.00,,,0.00,weatherlink.com 1.10,2013-12-02 21:02:00,
2013-12-02 16:20:00,48.5,37.0,29.85,SE,128,0.0,2.0,65,0.00,,,0.00,weatherlink.com 1.10,2013-12-02 21:20:00,
2013-12-02 16:40:00,47.9,37.0,29.85,SE,129,0.0,0.0,66,0.00,,,0.00,weatherlink.com 1.10,2013-12-02 21:40:00,
2013-12-02 16:58:00,47.4,37.0,29.85,SE,128,0.0,0.0,67,0.00,,,0.00,weatherlink.com 1.10,2013-12-02 21:58:00,
2013-12-02 17:16:00,47.2,37.0,29.85,SE,128,0.0,1.0,68,0.00,,,0.00,weatherlink.com 1.10,2013-12-02 22:16:00,
2013-12-02 17:36:00,46.3,37.0,29.86,SE,128,0.0,0.0,71,0.00,,,0.00,weatherlink.com 1.10,2013-12-02 22:36:00,
2013-12-02 17:54:00,46.1,38.0,29.86,SE,129,0.0,0.0,72,0.00,,,0.00,weatherlink.com 1.10,2013-12-02 22:54:00,
2013-12-02 18:12:00,45.6,38.0,29.86,SSW,193,0.0,2.0,74,0.00,,,0.00,weatherlink.com 1.10,2013-12-02 23:12:00,
2013-12-02 18:30:00,45.3,37.0,29.86,SSW,193,0.0,1.0,74,0.00,,,0.00,weatherlink.com 1.10,2013-12-02 23:30:00,
2013-12-02 18:50:00,44.7,37.0,29.86,West,266,0.0,2.0,75,0.00,,,0.00,weatherlink.com 1.10,2013-12-02 23:50:00,
2013-12-02 19:08:00,44.6,37.0,29.86,SW,232,0.0,1.0,76,0.00,,,0.00,weatherlink.com 1.10,2013-12-03 00:08:00,
2013-12-02 19:26:00,44.2,37.0,29.86,South,170,0.0,0.0,77,0.00,,,0.00,weatherlink.com 1.10,2013-12-03 00:26:00,
2013-12-02 19:46:00,43.7,37.0,29.87,South,187,0.0,0.0,78,0.00,,,0.00,weatherlink.com 1.10,2013-12-03 00:46:00,
2013-12-02 20:04:00,43.1,37.0,29.87,West,260,0.0,2.0,80,0.00,,,0.00,weatherlink.com 1.10,2013-12-03 01:04:00,
2013-12-02 20:22:00,42.6,38.0,29.87,West,260,0.0,1.0,82,0.00,,,0.00,weatherlink.com 1.10,2013-12-03 01:22:00,
2013-12-02 20:42:00,42.0,37.0,29.86,WSW,255,0.0,1.0,83,0.00,,,0.00,weatherlink.com 1.10,2013-12-03 01:42:00,
2013-12-02 21:00:00,41.5,37.0,29.86,WSW,250,0.0,0.0,85,0.00,,,0.00,weatherlink.com 1.10,2013-12-03 02:00:00,
2013-12-02 21:18:00,41.3,37.0,29.87,SSE,162,0.0,0.0,84,0.00,,,0.00,weatherlink.com 1.10,2013-12-03 02:18:00,
2013-12-02 21:36:00,40.9,37.0,29.87,WSW,257,0.0,0.0,85,0.00,,,0.00,weatherlink.com 1.10,2013-12-03 02:36:00,
2013-12-02 21:56:00,40.8,37.0,29.87,West,265,0.0,0.0,85,0.00,,,0.00,weatherlink.com 1.10,2013-12-03 02:56:00,
2013-12-02 22:14:00,40.7,37.0,29.87,West,265,0.0,0.0,86,0.00,,,0.00,weatherlink.com 1.10,2013-12-03 03:14:00,
2013-12-02 22:32:00,40.3,37.0,29.87,SSE,150,0.0,0.0,87,0.00,,,0.00,weatherlink.com 1.10,2013-12-03 03:32:00,
2013-12-02 22:52:00,39.8,36.0,29.87,SSE,150,0.0,0.0,87,0.00,,,0.00,weatherlink.com 1.10,2013-12-03 03:52:00,
2013-12-02 23:10:00,39.1,36.0,29.87,SSE,150,0.0,0.0,88,0.00,,,0.00,weatherlink.com 1.10,2013-12-03 04:10:00,
2013-12-02 23:28:00,38.6,36.0,29.87,SSE,150,0.0,0.0,89,0.00,,,0.00,weatherlink.com 1.10,2013-12-03 04:28:00,
2013-12-02 23:46:00,37.9,35.0,29.87,SSE,150,0.0,0.0,90,0.00,,,0.00,weatherlink.com 1.10,2013-12-03 04:46:00,